DW0542 Weather Reports


Display with metric or nautical units.
time (UTC)temp
F
wind
direction
speed
MPH
gust
MPH
rain 1hr
in
rain 24hr
in
rain mn
in
humidity
%
barometer
mb
20260510023058 51 87 0.0 0.0 0.01 0.72 0.43 91 1012.1
20260510021552 51 87 0.0 3.0 0.00 0.71 0.42 91 1012.3
20260510014608 51 88 0.0 6.0 0.01 0.71 0.42 91 1012.3
20260510013059 51 87 0.0 4.0 0.02 0.71 0.42 91 1012.4
20260510011545 51 85 0.0 8.0 0.03 0.71 0.42 91 1012.7
20260510010030 52 220 0.0 4.0 0.04 0.70 0.41 91 1012.7
20260510004504 52 118 0.0 8.0 0.05 0.69 0.40 91 1012.8
20260510003002 53 121 0.0 0.0 0.08 0.69 0.40 91 1012.6
20260510001503 53 182 2.0 11.0 0.12 0.68 0.39 91 1012.6
20260510000100 53 96 0.0 0.0 0.15 0.66 0.37 91 1012.5
20260509234556 53 124 0.0 2.0 0.18 0.64 0.35 91 1012.6
20260509233055 53 122 1.0 5.0 0.18 0.61 0.32 91 1012.6
20260509231606 53 159 0.0 0.0 0.17 0.56 0.27 91 1012.5
20260509230053 53 160 0.0 0.0 0.18 0.51 0.22 91 1012.8
20260509224522 54 161 0.0 5.0 0.16 0.46 0.17 90 1012.9
20260509223021 54 226 0.0 0.0 0.15 0.43 0.14 90 1012.6
20260509220012 54 226 0.0 5.0 0.07 0.33 0.04 89 1012.3
20260509214509 54 241 0.0 1.0 0.05 0.30 0.01 89 1012.3
20260509213008 54 190 0.0 0.0 0.08 0.28 0.28 89 1012.0
20260509211514 54 191 0.0 0.0 0.12 0.27 0.27 88 1012.1
20260509210006 55 188 0.0 6.0 0.14 0.26 0.26 88 1012.2
20260509204504 55 197 1.0 7.0 0.12 0.24 0.24 87 1012.3
20260509203005 55 122 0.0 6.0 0.11 0.20 0.20 86 1012.1
20260509201558 56 186 0.0 11.0 0.08 0.15 0.15 86 1012.2
20260509200058 57 82 0.0 0.0 0.05 0.12 0.12 85 1011.7
20260509194530 57 82 0.0 1.0 0.05 0.12 0.12 82 1011.6
20260509193027 59 76 0.0 7.0 0.02 0.09 0.09 78 1011.7
20260509191527 59 134 0.0 3.0 0.00 0.07 0.07 73 1011.7
20260509190021 60 126 0.0 6.0 0.00 0.07 0.07 72 1011.9
20260509184521 59 191 1.0 9.0 0.00 0.07 0.07 74 1012.0
20260509183015 59 184 0.0 6.0 0.00 0.07 0.07 72 1012.1
20260509181514 59 128 0.0 1.0 0.00 0.07 0.07 74 1012.2
20260509180013 59 123 0.0 0.0 0.00 0.07 0.07 72 1012.2
20260509174511 59 182 0.0 4.0 0.00 0.07 0.07 73 1012.5
20260509173032 59 196 0.0 5.0 0.00 0.07 0.07 71 1012.8
20260509171521 59 190 0.0 5.0 0.00 0.07 0.07 71 1012.7
20260509170014 59 181 2.0 12.0 0.00 0.07 0.07 71 1013.0
20260509164558 59 173 1.0 8.0 0.00 0.07 0.07 74 1012.7
20260509163052 59 195 0.0 8.0 0.00 0.07 0.07 72 1012.8
20260509161548 58 183 0.0 5.0 0.00 0.07 0.07 76 1013.0
20260509154525 55 105 0.0 3.0 0.00 0.07 0.07 83 1013.4
20260509153031 54 173 0.0 4.0 0.00 0.07 0.07 85 1013.5
20260509151519 52 153 0.0 5.0 0.00 0.07 0.07 86 1013.6
20260509150019 52 77 0.0 4.0 0.00 0.07 0.07 85 1013.4
20260509144518 51 151 0.0 0.0 0.00 0.07 0.07 85 1013.7
20260509143019 51 82 1.0 7.0 0.00 0.07 0.07 85 1013.7
20260509141550 50 75 0.0 0.0 0.00 0.07 0.07 86 1013.9
20260509140046 49 58 0.0 3.0 0.00 0.07 0.07 86 1014.1
20260509134645 49 147 0.0 4.0 0.00 0.07 0.07 87 1014.3
20260509133044 48 245 0.0 0.0 0.00 0.07 0.07 88 1014.6
20260509131556 47 245 0.0 0.0 0.00 0.07 0.07 88 1014.8
20260509124531 45 245 0.0 0.0 0.01 0.07 0.07 87 1014.9
20260509123011 45 245 0.0 0.0 0.01 0.07 0.07 88 1014.8
20260509121507 44 246 0.0 0.0 0.02 0.07 0.07 89 1014.8
20260509120013 44 246 0.0 0.0 0.02 0.07 0.07 89 1015.0
20260509114505 44 246 0.0 0.0 0.01 0.06 0.06 89 1015.3
20260509113005 43 246 0.0 0.0 0.02 0.06 0.06 89 1015.3
20260509111535 43 246 0.0 0.0 0.03 0.05 0.05 89 1015.2
20260509110032 43 246 0.0 0.0 0.04 0.05 0.05 89 1015.3
20260509104530 43 246 0.0 0.0 0.05 0.05 0.05 88 1015.5
20260509103028 43 246 0.0 0.0 0.04 0.04 0.04 87 1015.4
20260509101535 43 246 0.0 0.0 0.02 0.02 0.02 86 1015.3
20260509100025 44 246 0.0 0.0 0.01 0.01 0.01 86 1015.0
20260509094530 44 231 0.0 1.0 0.00 0.00 0.00 87 1015.0
20260509093021 42 230 0.0 0.0 0.00 0.00 0.00 86 1014.7
20260509091521 41 230 0.0 0.0 0.00 0.00 0.00 86 1014.3
20260509090020 40 230 0.0 0.0 0.00 0.00 0.00 86 1014.1
20260509083016 39 230 0.0 0.0 0.00 0.00 0.00 86 1014.3
20260509081515 39 230 0.0 0.0 0.00 0.00 0.00 87 1014.2
20260509080014 38 230 0.0 0.0 0.00 0.00 0.00 88 1014.2
20260509074514 37 230 0.0 0.0 0.00 0.00 0.00 88 1014.6
20260509073013 37 230 0.0 0.0 0.00 0.00 0.00 88 1014.4
20260509071512 37 230 0.0 0.0 0.00 0.00 0.00 87 1014.4
20260509070009 37 230 0.0 0.0 0.00 0.00 0.00 87 1014.6
20260509064509 37 230 0.0 0.0 0.00 0.00 0.00 87 1014.6
20260509063007 37 230 0.0 0.0 0.00 0.00 0.00 86 1014.7
20260509061513 38 230 0.0 0.0 0.00 0.00 0.00 86 1014.8
20260509060003 38 230 0.0 0.0 0.00 0.00 0.00 86 1014.6
20260509054502 38 230 0.0 0.0 0.00 0.00 0.00 86 1014.7
20260509053002 38 230 0.0 0.0 0.00 0.00 0.00 85 1014.7
20260509051608 38 230 0.0 0.0 0.00 0.00 0.00 85 1014.5
20260509050029 38 230 0.0 0.0 0.00 0.00 0.00 84 1014.4
20260509044526 39 230 0.0 0.0 0.00 0.00 0.00 84 1014.3
20260509043055 39 230 0.0 0.0 0.00 0.00 0.00 83 1014.4
20260509041553 39 230 0.0 0.0 0.00 0.00 0.00 83 1014.4
20260509040049 39 230 0.0 0.0 0.00 0.00 0.00 83 1014.3
20260509034547 40 230 0.0 0.0 0.00 0.00 0.00 82 1014.1
20260509033045 40 230 0.0 0.0 0.00 0.00 0.00 81 1014.0
20260509031553 41 230 0.0 0.0 0.00 0.00 0.00 80 1014.0
20260509030013 41 230 0.0 0.0 0.00 0.00 0.00 79 1013.9
20260509024510 42 230 0.0 0.0 0.00 0.00 0.00 77 1013.7